DW0416 Weather Reports


Display with metric or nautical units.
time (UTC)temp
F
wind
direction
speed
MPH
gust
MPH
rain 1hr
in
rain 24hr
in
rain mn
in
humidity
%
barometer
mb
20260901010034 77 150 0.0 3.0 0.00 0.00 0.00 29 1019.7
20260901004540 77 169 1.0 3.0 0.00 0.00 0.00 27 1019.7
20260901003028 77 209 0.0 1.0 0.00 0.00 0.00 28 1019.8
20260901001518 77 203 0.0 3.0 0.00 0.00 0.00 29 1019.7
20260901000034 77 279 1.0 6.0 0.00 0.00 0.00 24 1019.7
20260831234531 78 245 2.0 4.0 0.00 0.00 0.00 23 1019.6
20260831233033 80 279 2.0 5.0 0.00 0.00 0.00 23 1019.7
20260831231524 80 224 1.0 5.0 0.00 0.00 0.00 22 1019.7
20260831230021 80 178 3.0 9.0 0.00 0.00 0.00 22 1019.9
20260831224526 78 191 1.0 4.0 0.00 0.00 0.00 24 1020.0
20260831223037 80 165 2.0 5.0 0.00 0.00 0.00 22 1020.1
20260831221539 78 165 3.0 6.0 0.00 0.00 0.00 22 1020.1
20260831220025 79 245 2.0 5.0 0.00 0.00 0.00 22 1020.5
20260831214508 77 111 3.0 5.0 0.00 0.00 0.00 23 1020.9
20260831213007 76 78 2.0 6.0 0.00 0.00 0.00 24 1020.8
20260831211510 76 281 2.0 8.0 0.00 0.00 0.00 25 1021.1
20260831210031 76 21 4.0 8.0 0.00 0.00 0.00 23 1021.4
20260831204530 75 26 3.0 7.0 0.00 0.00 0.00 24 1021.6
20260831203003 75 305 3.0 7.0 0.00 0.00 0.00 24 1021.7
20260831201517 76 255 3.0 7.0 0.00 0.00 0.00 24 1021.9
20260831200020 75 96 2.0 4.0 0.00 0.00 0.00 24 1022.1
20260831194522 74 284 1.0 7.0 0.00 0.00 0.00 25 1022.3
20260831193022 72 252 3.0 5.0 0.00 0.00 0.00 29 1022.6
20260831191533 71 288 3.0 5.0 0.00 0.00 0.00 31 1022.8
20260831190010 69 334 1.0 4.0 0.00 0.00 0.00 36 1023.0
20260831184514 66 274 2.0 6.0 0.00 0.00 0.00 39 1023.3
20260831183030 64 283 2.0 8.0 0.00 0.00 0.00 42 1023.6
20260831181531 62 285 3.0 6.0 0.00 0.00 0.00 42 1023.9
20260831180005 60 278 3.0 6.0 0.00 0.00 0.00 44 1024.1
20260831174520 58 274 1.0 5.0 0.00 0.00 0.00 47 1024.3
20260831173022 57 302 3.0 6.0 0.00 0.00 0.00 48 1024.4
20260831171534 56 282 1.0 5.0 0.00 0.00 0.00 50 1024.5
20260831170033 54 286 1.0 3.0 0.00 0.00 0.00 51 1024.6
20260831164521 53 152 1.0 2.0 0.00 0.00 0.00 54 1024.7
20260831163015 52 75 0.0 0.0 0.00 0.00 0.00 54 1024.8
20260831161534 49 249 0.0 0.0 0.00 0.00 0.00 56 1024.8
20260831160032 47 226 0.0 2.0 0.00 0.00 0.00 61 1025.0
20260831154555 45 287 0.0 3.0 0.00 0.00 0.00 65 1025.0
20260831153025 43 290 2.0 3.0 0.00 0.00 0.00 63 1025.0
20260831151529 41 36 0.0 0.0 0.00 0.00 0.00 69 1025.2
20260831150037 38 37 0.0 0.0 0.00 0.00 0.00 72 1025.2
20260831144527 36 30 0.0 0.0 0.00 0.00 0.00 80 1025.1
20260831143032 35 30 0.0 0.0 0.00 0.00 0.00 82 1025.2
20260831141516 35 20 0.0 1.0 0.00 0.01 0.00 83 1025.2
20260831140021 34 141 0.0 0.0 0.00 0.01 0.00 82 1025.1
20260831134527 35 160 0.0 0.0 0.00 0.01 0.00 82 1025.0
20260831133033 34 136 0.0 1.0 0.00 0.01 0.00 82 1024.7
20260831131529 34 136 0.0 1.0 0.00 0.01 0.00 82 1024.6
20260831130014 33 136 0.0 1.0 0.00 0.01 0.00 82 1024.4
20260831124531 34 150 0.0 2.0 0.00 0.01 0.00 83 1024.4
20260831123027 34 99 0.0 0.0 0.00 0.01 0.00 82 1024.2
20260831121532 34 99 0.0 1.0 0.00 0.01 0.00 82 1024.3
20260831120040 35 99 0.0 2.0 0.00 0.01 0.00 79 1024.2
20260831114532 36 43 1.0 2.0 0.00 0.01 0.00 77 1024.1
20260831113011 37 19 0.0 0.0 0.00 0.01 0.00 75 1023.9
20260831111507 38 14 0.0 0.0 0.00 0.01 0.00 73 1023.8
20260831110004 38 271 0.0 2.0 0.00 0.01 0.00 72 1023.8
20260831104506 39 31 0.0 2.0 0.00 0.01 0.00 71 1023.6
20260831103004 41 51 0.0 1.0 0.00 0.01 0.00 66 1023.5
20260831101516 40 45 1.0 3.0 0.00 0.01 0.00 65 1023.6
20260831100004 40 40 1.0 1.0 0.00 0.01 0.00 66 1023.5
20260831094506 41 29 0.0 1.0 0.00 0.01 0.00 65 1023.4
20260831093011 40 38 0.0 0.0 0.00 0.01 0.00 69 1023.4
20260831091524 41 67 0.0 0.0 0.00 0.01 0.00 66 1023.3
20260831090014 41 88 0.0 0.0 0.00 0.01 0.00 65 1023.4
20260831084512 41 105 0.0 0.0 0.00 0.01 0.00 64 1023.4
20260831083016 41 158 0.0 2.0 0.00 0.01 0.00 64 1023.2
20260831081520 42 87 0.0 1.0 0.00 0.01 0.00 66 1023.3
20260831080011 42 56 0.0 0.0 0.00 0.01 0.00 66 1023.3
20260831074506 42 56 0.0 2.0 0.00 0.01 0.00 64 1023.3
20260831073021 43 185 0.0 1.0 0.00 0.01 0.00 62 1023.1
20260831071506 43 193 0.0 0.0 0.00 0.01 0.00 61 1023.1
20260831070008 43 106 0.0 2.0 0.00 0.01 0.00 64 1022.9
20260831064530 44 105 0.0 0.0 0.00 0.01 0.00 62 1022.9
20260831063007 44 105 0.0 0.0 0.00 0.01 0.00 60 1022.8
20260831061508 44 55 0.0 0.0 0.00 0.01 0.00 62 1022.6
20260831060008 44 113 0.0 3.0 0.00 0.01 0.00 60 1022.6
20260831054513 45 205 0.0 1.0 0.00 0.01 0.01 60 1022.5
20260831053010 46 79 0.0 2.0 0.00 0.01 0.01 57 1022.5
20260831051509 47 208 0.0 4.0 0.00 0.01 0.01 50 1022.4
20260831050008 48 120 1.0 3.0 0.00 0.01 0.01 52 1022.5
20260831044511 48 116 0.0 0.0 0.00 0.01 0.01 51 1022.4
20260831043010 49 136 0.0 0.0 0.00 0.01 0.01 52 1022.3
20260831041510 49 111 0.0 1.0 0.00 0.01 0.01 52 1022.3
20260831040012 50 262 1.0 3.0 0.00 0.01 0.01 50 1022.2
20260831034509 52 159 0.0 5.0 0.00 0.01 0.01 45 1022.1
20260831033024 53 179 0.0 2.0 0.00 0.01 0.01 40 1021.9
20260831031517 56 57 1.0 2.0 0.00 0.01 0.01 29 1021.7
20260831030013 58 79 0.0 4.0 0.00 0.01 0.01 27 1021.7
20260831024514 60 183 0.0 8.0 0.00 0.01 0.01 28 1021.5
20260831023014 62 30 2.0 5.0 0.00 0.01 0.01 20 1021.4
20260831021529 62 32 2.0 5.0 0.00 0.01 0.01 20 1021.0
20260831020016 63 18 3.0 5.0 0.00 0.01 0.01 21 1020.9
20260831014518 66 65 1.0 5.0 0.00 0.01 0.01 21 1020.7
20260831013018 67 188 2.0 4.0 0.00 0.01 0.01 23 1020.6
20260831011535 68 262 2.0 5.0 0.00 0.01 0.01 24 1020.5